Regional Weather Roundup
Issued by NWS Kansas City/Pleasant Hill, MO

Home | Current Version | Previous Version | Graphics & Text | Print | Product List | Glossary Off
Versions: 1 2 3 4 5 6 7 8 9 10 11 12 13 14 15 16 17 18 19 20 21 22 23 24 25 26 27 28 29 30 31 32 33 34 35 36 37 38 39 40 41 42 43 44 45 46 47 48 49 50

000
ASUS43 KEAX 292210
RWREAX

WEATHER ROUNDUP FOR EASTERN KANSAS AND NORTHWEST MISSOURI
NATIONAL WEATHER SERVICE KANSAS CITY/PLEASANT HILL MO
500 PM CDT SAT APR 29 2017

KSZ040-057-103>105-MOZ028-029-037-043-292300-
...KANSAS CITY METROPOLITAN AREA...

CITY           SKY/WX    TMP DP  RH WIND       PRES   REMARKS
K.C. INTL      LGT RAIN  47  46  97 NE18      29.73R
K.C. DOWNTOWN  LGT RAIN  50  48  93 E18       29.72R
LEES SUMMIT    LGT RAIN  48  48 100 E12G33    29.74R
OLATHE - IXD   LGT RAIN  50  49  96 E14G20    29.71R
OLATHE - OJC   LGT RAIN  48  48 100 E17G26    29.68R
LAWRENCE       LGT RAIN  50  49  96 W8G20     29.82R

$$

MOZ001>008-011>017-020>025-030>033-038>040-044>046-053-054-292300-
...NORTHERN AND CENTRAL MISSOURI...

CITY           SKY/WX    TMP DP  RH WIND       PRES   REMARKS
ST. JOSEPH     CLOUDY    47  45  93 NE16      29.83R
MOSBY          LGT RAIN  46  45  93 E8G24     29.78R
WHITEMAN AFB   LGT RAIN  47  47 100 E12G20    29.80R
CLINTON        LGT RAIN  48  48 100 SE6       29.85R
SEDALIA        LGT RAIN  49  49 100 E17G26    29.80F
WARSAW         NOT AVBL
CHILLICOTHE      N/A     43  41  93 E20G39    29.74F WCI  34
KIRKSVILLE     CLOUDY    43  31  62 NE24G33   29.86F WCI  33

$$

MOZ041-047>049-056>058-063>065-088>090-097-292300-
...EASTERN AND SOUTHERN MISSOURI...

CITY           SKY/WX    TMP DP  RH WIND       PRES   REMARKS
ST. LOUIS INTL TSTM      66  62  87 SW12      29.79R FOG
SPIRIT OF STL  TSTM      64  64 100 W5        29.77S FOG
COLUMBIA       LGT RAIN  48  48 100 NE13      29.83F
JEFFERSON CITY RAIN      53  48  83 E7        29.87R
ROLLA          HVY RAIN  54  54 100 NE8       29.81R FOG
OSAGE BEACH    RAIN      52  52 100 NE12      29.79F
SPRINGFIELD    CLOUDY    60  59  96 NE15      29.69F
BRANSON        TSTM      63  63 100 CALM      29.73R FOG
JOPLIN         CLOUDY    56  55  97 NE10G22   29.65F
WEST PLAINS    TSTM      63  62  97 W9        29.81S VSB 1

$$

IAZ060-094-KSZ022-034>040-054-083-096-NEZ052-066-093-292300-
...KANSAS...SOUTHEAST NEBRASKA AND IOWA...

CITY           SKY/WX    TMP DP  RH WIND       PRES   REMARKS
TOPEKA         CLOUDY    48  48 100 N13       29.81R
MANHATTAN      LGT RAIN  46  46 100 NE13      29.83R FOG
EMPORIA        LGT RAIN  47  47 100 N9G17     29.75F FOG
CHANUTE        RAIN      55  53  93 E7        29.71R FOG
WICHITA        LGT RAIN  47  46  97 N17       29.76S FOG
OMAHA          CLOUDY    46  37  71 N18       29.97F
LINCOLN        LGT RAIN  44  39  82 NE21G35   29.97F
FALLS CITY     CLOUDY    45  42  89 NE16G22   29.88R
LAMONI         CLOUDY    42  40  92 NE29G51   29.78F WCI  31
DES MOINES     CLOUDY    44  38  79 NE20G37   29.95F

$$




USA.gov is the U.S. government's official web portal to all federal, state and local government web resources and services.